{"data":{"norad_id":64169,"epoch":"2026-09-20T14:24:55.419552Z","epoch_age_seconds":131732,"freshness":"FRESH","line1":"1 64169U 25112Z   26263.60064143  .00004386  00000+0  13811-3 0  9997","line2":"2 64169  97.2847 310.6696 0000950  68.5001 291.6343 15.33446114 72762","mean_motion":15.33446114,"eccentricity":9.5e-5,"inclination_deg":97.2847,"raan_deg":310.6696,"arg_perigee_deg":68.5001,"mean_anomaly_deg":291.6343,"bstar":0.00013811,"rev_number":7276,"period_min":93.906136436953,"perigee_km":464.8897106982,"apogee_km":466.1900093016,"semimajor_km":6843.6768599999,"source":"CELESTRAK","updated_at":"2026-09-21T09:00:35.242385Z"}}